This is the latest recevied weather packets stored in our database for station/object IZ5MMH-4. If no packets are shown the sender has not sent any weather packets the latest 10 day(s).
| Time | Temp. | Humidity | Pressure | Rain* | Wind** | Luminosity | Snow |
|---|---|---|---|---|---|---|---|
| 1787806463 | 28.33° C | 69% | 1016.7 hPa | - | - | - | - |
| 1787805863 | 28.33° C | 70% | 1016.8 hPa | - | - | - | - |
| 1787805263 | 28.33° C | 70% | 1016.9 hPa | - | - | - | - |
| 1787804664 | 28.33° C | 69% | 1016.7 hPa | - | - | - | - |
| 1787804064 | 28.33° C | 69% | 1016.8 hPa | - | - | - | - |
| 1787803464 | 28.33° C | 69% | 1016.7 hPa | - | - | - | - |
| 1787802864 | 28.33° C | 68% | 1016.7 hPa | - | - | - | - |
| 1787802263 | 28.33° C | 68% | 1016.3 hPa | - | - | - | - |
| 1787801663 | 28.33° C | 67% | 1016.2 hPa | - | - | - | - |
| 1787801064 | 28.33° C | 67% | 1016.3 hPa | - | - | - | - |
| 1787800464 | 28.33° C | 68% | 1016.1 hPa | - | - | - | - |
| 1787799863 | 27.78° C | 70% | 1016.2 hPa | - | - | - | - |
| 1787799263 | 27.78° C | 74% | 1016.2 hPa | - | - | - | - |
| 1787798663 | 28.33° C | 75% | 1016.4 hPa | - | - | - | - |
| 1787798063 | 28.33° C | 74% | 1016.4 hPa | - | - | - | - |
| 1787797463 | 28.33° C | 78% | 1016.2 hPa | - | - | - | - |
| 1787796863 | 27.78° C | 81% | 1016.3 hPa | - | - | - | - |
| 1787795663 | 27.78° C | 81% | 1016.9 hPa | - | - | - | - |
| 1787795064 | 27.78° C | 80% | 1017.5 hPa | - | - | - | - |
| 1787794464 | 27.78° C | 78% | 1017.7 hPa | - | - | - | - |
| 1787793864 | 27.78° C | 74% | 1017.7 hPa | - | - | - | - |
| 1787793263 | 27.78° C | 71% | 1017.4 hPa | - | - | - | - |
| 1787792663 | 27.78° C | 68% | 1017.9 hPa | - | - | - | - |
| 1787792063 | 28.33° C | 66% | 1017.9 hPa | - | - | - | - |
| 1787791464 | 28.33° C | 67% | 1017.3 hPa | - | - | - | - |
* Rain since midnight (hover to see other rain measurements)
** Current wind speed in m/s (hover to see current wind gust speed)